{"data":{"norad_id":60040,"intl_designator":"2024-112C","name":"STARLINK-11122 [DTC]","alt_names":[],"object_type":"PAYLOAD","status":"ACTIVE","operator":null,"country":"US","launch_date":"2024-06-08","launch_site_code":"AFWTR","launch_vehicle":null,"mission":null,"orbit_class":"UNKNOWN","rcs_meters":null,"size_class":null,"mass_kg":null,"dimensions":null,"purposes":["comms"],"wikipedia_slug":null,"has_3d_model":false,"image_url":null,"decayed_at":null,"tle_current":{"epoch":"2026-09-21T13:43:44.516064Z","epoch_age_seconds":84781,"freshness":"FRESH","line1":"1 60040U 24112C   26264.57204301 -.00002142  00000+0 -12821-4 0  9990","line2":"2 60040  53.1584  20.8525 0001387 104.6024 255.5148 15.69712603131742","mean_motion":15.69712603,"eccentricity":0.0001387,"inclination_deg":53.1584,"raan_deg":20.8525,"arg_perigee_deg":104.6024,"mean_anomaly_deg":255.5148,"bstar":-1.2821e-5,"rev_number":13174,"period_min":91.736538092891,"perigee_km":358.78476097141,"apogee_km":360.65384230949,"semimajor_km":6737.8563016404,"source":"CELESTRAK","updated_at":"2026-09-22T09:00:49.141958Z"}}}